Satellite: AO-27
Catalog number: 22825
Epoch time:      06095.56572991
Element set:    0370
Inclination:      098.2801 deg
RA of node:       080.9787 deg
Eccentricity:    0.0009336
Arg of perigee:   113.2801 deg
Mean anomaly:     246.9357 deg
Mean motion:   14.29166765 rev/day
Decay rate:        1.7e-07 rev/day^2
Epoch rev:           65298
Checksum:              338

Satellite: IO-26
Catalog number: 22826
Epoch time:      06095.96789210
Element set:    0077
Inclination:      098.2737 deg
RA of node:       082.5873 deg
Eccentricity:    0.0009752
Arg of perigee:   109.3733 deg
Mean anomaly:     250.8504 deg
Mean motion:   14.29410237 rev/day
Decay rate:        5.0e-08 rev/day^2
Epoch rev:           65311
Checksum:              312

Satellite: PO-28
Catalog number: 22829
Epoch time:      06095.85672341
Element set:     341
Inclination:      098.2641 deg
RA of node:       083.6856 deg
Eccentricity:    0.0010795
Arg of perigee:   087.6163 deg
Mean anomaly:     272.6259 deg
Mean motion:   14.30101203 rev/day
Decay rate:        6.3e-07 rev/day^2
Epoch rev:           65330
Checksum:              301

Satellite: TO-31
Catalog number: 25396
Epoch time:      06095.70503362
Element set:     496
Inclination:      098.4854 deg
RA of node:       158.5758 deg
Eccentricity:    0.0003411
Arg of perigee:   058.8497 deg
Mean anomaly:     301.3020 deg
Mean motion:   14.23700627 rev/day
Decay rate:        9.7e-07 rev/day^2
Epoch rev:           40203
Checksum:              298

Satellite: GO-32
Catalog number: 25397
Epoch time:      06095.77126075
Element set:     984
Inclination:      098.4746 deg
RA of node:       155.5483 deg
Eccentricity:    0.0002181
Arg of perigee:   072.9270 deg
Mean anomaly:     287.2153 deg
Mean motion:   14.23101343 rev/day
Decay rate:        6.6e-07 rev/day^2
Epoch rev:           40194
Checksum:              306

Satellite: UO-36
Catalog number: 25693
Epoch time:      06095.46448429
Element set:    0009
Inclination:      064.5567 deg
RA of node:       106.0715 deg
Eccentricity:    0.0009954
Arg of perigee:   335.8038 deg
Mean anomaly:     024.2602 deg
Mean motion:   14.78584522 rev/day
Decay rate:       -5.7e-07 rev/day^2
Epoch rev:           37503
Checksum:              318

Satellite: MO-46
Catalog number: 26548
Epoch time:      06096.49260308
Element set:     459
Inclination:      064.5560 deg
RA of node:       093.4846 deg
Eccentricity:    0.0051323
Arg of perigee:   257.3352 deg
Mean anomaly:     102.2022 deg
Mean motion:   14.82938260 rev/day
Decay rate:       1.95e-06 rev/day^2
Epoch rev:           29877
Checksum:              317

Satellite: NO-44
Catalog number: 26931
Epoch time:      06096.56218820
Element set:     274
Inclination:      067.0525 deg
RA of node:       192.1671 deg
Eccentricity:    0.0007357
Arg of perigee:   265.8990 deg
Mean anomaly:     094.1272 deg
Mean motion:   14.29432441 rev/day
Decay rate:       1.93e-06 rev/day^2
Epoch rev:           23569
Checksum:              315

Satellite: SO-50
Catalog number: 27607
Epoch time:      06096.58404862
Element set:     986
Inclination:      064.5591 deg
RA of node:       330.4359 deg
Eccentricity:    0.0051439
Arg of perigee:   170.7622 deg
Mean anomaly:     189.4435 deg
Mean motion:   14.71113926 rev/day
Decay rate:        5.8e-07 rev/day^2
Epoch rev:           17689
Checksum:              336

Satellite: CO-57
Catalog number: 27848
Epoch time:      06095.57487278
Element set:    0697
Inclination:      098.7208 deg
RA of node:       104.1998 deg
Eccentricity:    0.0009069
Arg of perigee:   278.9546 deg
Mean anomaly:     081.0587 deg
Mean motion:   14.20252740 rev/day
Decay rate:        1.1e-07 rev/day^2
Epoch rev:           14333
Checksum:              345

Satellite: AO-51
Catalog number: 28375
Epoch time:      06095.90801428
Element set:     499
Inclination:      098.1739 deg
RA of node:       151.2143 deg
Eccentricity:    0.0085227
Arg of perigee:   066.1555 deg
Mean anomaly:     294.8529 deg
Mean motion:   14.40510792 rev/day
Decay rate:        2.1e-07 rev/day^2
Epoch rev:            9275
Checksum:              320

Satellite: XO-53
Catalog number: 28894
Epoch time:      06096.59980179
Element set:     502
Inclination:      098.1733 deg
RA of node:       356.0226 deg
Eccentricity:    0.0018463
Arg of perigee:   039.0583 deg
Mean anomaly:     321.1953 deg
Mean motion:   14.59451418 rev/day
Decay rate:       1.70e-06 rev/day^2
Epoch rev:            2353
Checksum:              317

Satellite: CO-56
Catalog number: 28941
Epoch time:      06096.03751434
Element set:      47
Inclination:      098.1803 deg
RA of node:       108.3152 deg
Eccentricity:    0.0293462
Arg of perigee:   359.4248 deg
Mean anomaly:     000.6920 deg
Mean motion:   15.21693062 rev/day
Decay rate:     3.1054e-04 rev/day^2
Epoch rev:             656
Checksum:              294

/EX
SB KEPS @ AMSAT  $ORB06096.W
Orbital Elements  06096.WEATHER

HR AMSAT ORBITAL ELEMENTS FOR WEATHER SATELLITES
FROM WA5QGD FORT WORTH,TX April 6, 2006
Send SUBSCRIBE KEPS/UNSUBSCRIBE KEPS to majordomo@amsat.org only
BID: ORB06096.W
TO ALL RADIO AMATEURS BT

Satellite: NOAA-10
Catalog number: 16969
Epoch time:      06096.28951229
Element set:     158
Inclination:      098.7637 deg
RA of node:       107.7615 deg
Eccentricity:    0.0012536
Arg of perigee:   004.5478 deg
Mean anomaly:     355.5819 deg
Mean motion:   14.27289120 rev/day
Decay rate:       -5.0e-07 rev/day^2
Epoch rev:            1690
Checksum:              322

